Location: Apollinopolis Magna
(24.9792°N, 32.8772°E)
Time: 19:03:22
(UTC+00:00)

SWIFT - Pass Details

Date: 02 March 2021
Orbit: 544 x 559 km, 20.6° (Epoch: 10 April)

Event Time Altitude Azimuth Distance (km) Brightness Sun altitude
Rises 16:45:56 0° 249° (WSW) 2,685 7.3 -13.2°
Reaches altitude 10° 16:48:19 10° 241° (WSW) 1,792 6.0 -13.7°
Maximum altitude 16:52:12 38° 173° (S) 826 3.1 -14.6°
Enters shadow 16:54:14 23° 119° (ESE) 1,173 3.5 -15.1°
